FW8676 Weather Reports


time (UTC)temp
C
wind
direction
speed
KPH
gust
KPH
rain 1hr
cm
rain 24hr
cm
rain mn
cm
humidity
%
barometer
mb
20260505130120 19 195 8.0 25.7 0.00 0.00 0.00 61 1012.8
20260505124608 18 188 6.4 19.3 0.00 0.00 0.00 63 1012.6
20260505123116 18 191 4.8 25.7 0.00 0.00 0.00 64 1012.5
20260505121555 17 233 4.8 19.3 0.00 0.00 0.00 66 1012.5
20260505120057 17 193 6.4 17.7 0.00 0.00 0.00 67 1012.5
20260505114612 17 153 6.4 20.9 0.00 0.00 0.00 67 1012.4
20260505113054 17 240 6.4 19.3 0.00 0.00 0.00 68 1012.4
20260505111607 17 170 4.8 16.1 0.00 0.00 0.00 68 1012.3
20260505101557 16 162 3.2 11.3 0.00 0.00 0.00 68 1011.8
20260505100057 16 243 1.6 12.9 0.00 0.00 0.00 68 1011.6
20260505094552 16 192 1.6 11.3 0.00 0.00 0.00 67 1011.6
20260505093058 16 197 0.0 11.3 0.00 0.00 0.00 67 1011.6
20260505091554 16 195 1.6 16.1 0.00 0.00 0.00 68 1011.6
20260505090059 16 189 1.6 11.3 0.00 0.00 0.00 68 1011.5
20260505084651 17 169 4.8 11.3 0.00 0.00 0.00 68 1011.4
20260505083105 17 195 1.6 11.3 0.00 0.00 0.00 69 1011.5
20260505081557 17 202 4.8 14.5 0.00 0.00 0.00 69 1011.4
20260505080057 17 156 3.2 9.7 0.00 0.00 0.00 70 1011.3
20260505074556 17 169 4.8 16.1 0.00 0.00 0.00 70 1011.4
20260505073056 17 200 0.0 8.0 0.00 0.00 0.00 69 1011.3
20260505071557 17 166 3.2 16.1 0.00 0.00 0.00 69 1011.2
20260505070055 17 185 3.2 12.9 0.00 0.00 0.00 68 1011.2
20260505064600 17 205 3.2 12.9 0.00 0.00 0.00 68 1011.2
20260505063055 17 170 3.2 9.7 0.00 0.00 0.00 68 1011.3
20260505061554 17 170 3.2 14.5 0.00 0.00 0.00 68 1011.2
20260505060058 17 171 1.6 14.5 0.00 0.00 0.00 68 1011.2
20260505054604 16 179 4.8 12.9 0.00 0.00 0.00 68 1011.2
20260505053110 16 232 3.2 9.7 0.00 0.00 0.00 70 1011.3
20260505051558 16 139 0.0 3.2 0.00 0.00 0.00 70 1011.4
20260505041615 16 173 0.0 6.4 0.00 0.00 0.00 67 1011.4
20260505040056 16 125 1.6 8.0 0.00 0.00 0.00 65 1011.5
20260505034604 16 143 3.2 16.1 0.00 0.00 0.00 64 1011.3
20260505033059 16 165 1.6 6.4 0.00 0.00 0.00 65 1011.2
20260505031606 16 0 0.0 4.8 0.00 0.00 0.00 64 1011.3
20260505030058 16 148 1.6 9.7 0.00 0.00 0.00 62 1011.2
20260505024555 16 0 0.0 6.4 0.00 0.00 0.00 61 1011.4
20260505023101 16 163 0.0 6.4 0.00 0.00 0.00 61 1011.5
20260505021558 16 177 0.0 3.2 0.00 0.00 0.00 60 1011.5
20260505020053 16 0 0.0 3.2 0.00 0.00 0.00 57 1011.5
20260505014553 16 0 0.0 3.2 0.00 0.00 0.00 55 1011.4
20260505013059 17 170 0.0 6.4 0.00 0.00 0.00 53 1011.3
20260505011557 17 0 0.0 3.2 0.00 0.00 0.00 53 1011.1
20260505004552 18 0 0.0 6.4 0.00 0.00 0.00 51 1011.0
20260505003059 18 0 0.0 3.2 0.00 0.00 0.00 49 1010.9
20260505001558 20 170 1.6 12.9 0.00 0.00 0.00 45 1010.9
20260505000108 20 160 3.2 17.7 0.00 0.00 0.00 44 1010.9
20260504234619 21 189 1.6 17.7 0.00 0.00 0.00 43 1010.9
20260504233054 21 185 3.2 14.5 0.00 0.00 0.00 42 1010.7
20260504231604 21 183 3.2 12.9 0.00 0.00 0.00 41 1010.8
20260504230058 22 0 1.6 16.1 0.00 0.00 0.00 41 1010.6
20260504224555 22 174 1.6 17.7 0.00 0.00 0.00 39 1010.6
20260504223054 22 187 8.0 19.3 0.00 0.00 0.00 37 1010.6
20260504221602 22 120 6.4 16.1 0.00 0.00 0.00 38 1010.7
20260504220058 22 161 4.8 14.5 0.00 0.00 0.00 41 1010.8
20260504214555 22 214 4.8 24.1 0.00 0.00 0.00 40 1010.9
20260504213051 22 243 4.8 27.4 0.00 0.00 0.00 40 1011.1
20260504211558 22 168 6.4 20.9 0.00 0.00 0.00 38 1011.0
20260504210109 22 176 6.4 16.1 0.00 0.00 0.00 38 1011.0
20260504204602 22 193 8.0 19.3 0.00 0.00 0.00 38 1010.9
20260504203058 22 175 6.4 19.3 0.00 0.00 0.00 38 1010.9
20260504201556 22 132 8.0 20.9 0.00 0.00 0.00 38 1011.3
20260504200100 22 220 6.4 22.5 0.00 0.00 0.00 38 1011.5
20260504194608 22 145 6.4 14.5 0.00 0.00 0.00 38 1011.7
20260504193055 22 181 4.8 16.1 0.00 0.00 0.00 37 1012.0
20260504191554 22 166 6.4 24.1 0.00 0.00 0.00 38 1012.2
20260504190117 22 236 4.8 17.7 0.00 0.00 0.00 39 1012.2
20260504184558 22 216 3.2 19.3 0.00 0.00 0.00 40 1012.5
20260504183056 21 154 8.0 16.1 0.00 0.00 0.00 39 1012.6
20260504181558 21 241 4.8 20.9 0.00 0.00 0.00 38 1012.9
20260504180144 21 174 3.2 14.5 0.00 0.00 0.00 38 1012.9
20260504174556 21 168 6.4 16.1 0.00 0.00 0.00 36 1013.2
20260504173113 21 129 9.7 30.6 0.00 0.00 0.00 37 1013.4
20260504171556 20 258 3.2 25.7 0.00 0.00 0.00 39 1013.6
20260504140109 16 179 6.4 17.7 0.00 0.00 0.00 55 1014.9